Akron, CO

6:04 PM MDT on July 27, 2017 (GMT -0600)
Akron-Washington County

Weather History for KAKO - April, 2013

Change the Weather History Date:

Sunday, April 14, 2013

  Actual Average Record
Temperature  
Mean Temperature 42 °F 46 °F  
Max Temperature 49 °F 60 °F 83 °F (1942)
Min Temperature 34 °F 33 °F 13 °F (1968)
Degree Days  
Heating Degree Days 23    
Month to date heating degree days 346  
Cooling Degree Days 0    
Month to date cooling degree days 0  
Moisture  
Dew Point 20 °F    
Average Humidity 54    
Maximum Humidity 70    
Minimum Humidity 38    
Precipitation  
Precipitation T in 0.05 in 0.61 in (1945)
Month to date precipitation 0.68 0.62  
Year to date precipitation 2.29 2.23  
Sea Level Pressure  
Sea Level Pressure 29.56 in    
Wind  
Wind Speed 28 mph (NW)    
Max Wind Speed 47 mph    
Max Gust Speed 62 mph    
Visibility 10 miles    
Events Rain    
T = Trace of Precipitation, MM = Missing Value Source: NWS Daily Summary

Daily Weather History Graph

Daily Weather History Graph

Search for Another Location

Airport or City:

Trip Planner

Search our weather history database for the weather conditions in past years. The results will help you decide how hot, cold, wet, or windy it might be!

Date:

Astronomy

Apr. 14, 2013 Rise Set
Actual Time 6:15 AM MDT 7:30 PM MDT
Civil Twilight 5:47 AM MDT 7:59 PM MDT
Nautical Twilight 5:14 AM MDT 8:32 PM MDT
Astronomical Twilight 4:39 AM MDT 9:08 PM MDT
Moon 8:54 AM MDT (4/14) 11:46 PM MDT (4/14)
Length of Visible Light 14h 11m
Length of Day
13h 15m
Waxing Crescent, 17% of the Moon is Illuminated
Apr 14
Waxing Crescent
Apr 18
First Quarter
Apr 25
Full
May 2
Last Quarter
May 9
New

Hourly Weather History & Observations

Time (MDT) Temp. Windchill Dew Point Humidity Pressure Visibility Wind Dir Wind Speed Gust Speed Precip Events Conditions
12:53 AM 44.1 °F 33.0 °F - N/A% 29.39 in 10.0 mi NNW 36.8 mph 42.6 mph N/A   Partly Cloudy
1:53 AM 37.0 °F 23.0 °F - N/A% 29.44 in 10.0 mi NW 39.1 mph 51.8 mph 0.00 in Rain Light Rain
2:53 AM 42.1 °F 32.8 °F 32.0 °F 67% 29.41 in 10.0 mi NW 21.9 mph 29.9 mph 0.00 in   Overcast
3:53 AM 41.0 °F 31.9 °F - N/A% 29.40 in 10.0 mi WNW 19.6 mph 28.8 mph N/A   Overcast
4:53 AM 41.0 °F 32.5 °F - N/A% 29.40 in 10.0 mi WNW 17.3 mph 26.5 mph N/A   Overcast
5:53 AM 39.0 °F 29.0 °F - N/A% 29.40 in 10.0 mi WNW 20.7 mph - N/A   Clear
6:53 AM 36.0 °F 28.0 °F 26.1 °F 67% 29.46 in 10.0 mi WNW 11.5 mph - N/A   Clear
7:53 AM 39.0 °F 29.6 °F - N/A% 29.50 in 10.0 mi NNW 18.4 mph - N/A   Clear
8:53 AM 41.0 °F 29.5 °F - N/A% 29.52 in 10.0 mi NW 32.2 mph 41.4 mph N/A   Clear
9:53 AM 44.1 °F 32.9 °F - N/A% 29.52 in 10.0 mi NW 38.0 mph 46.0 mph N/A   Clear
10:53 AM 45.0 °F 34.3 °F - N/A% 29.54 in 10.0 mi WNW 36.8 mph 48.3 mph N/A   Clear
11:53 AM 46.0 °F 35.6 °F - N/A% 29.56 in 10.0 mi NW 38.0 mph 56.4 mph N/A   Clear
12:53 PM 46.9 °F - - N/A% 29.55 in 10.0 mi NW 44.9 mph 56.4 mph N/A   Clear
1:53 PM 48.0 °F - - N/A% 29.60 in 10.0 mi NW 38.0 mph 49.5 mph N/A   Clear
2:53 PM 48.0 °F - - N/A% 29.58 in 10.0 mi WNW 34.5 mph 51.8 mph N/A   Clear
3:53 PM 48.0 °F - - N/A% 29.59 in 10.0 mi NW 35.7 mph 52.9 mph N/A   Clear
4:53 PM 48.0 °F - - N/A% 29.60 in 10.0 mi NW 35.7 mph 51.8 mph N/A   Clear
5:53 PM 46.0 °F 36.5 °F - N/A% 29.62 in 10.0 mi NW 31.1 mph 46.0 mph N/A   Clear
6:53 PM 43.0 °F 31.8 °F - N/A% 29.65 in 10.0 mi NW 34.5 mph 41.4 mph N/A   Clear
7:53 PM 37.0 °F 26.4 °F - N/A% 29.67 in 10.0 mi NNW 20.7 mph - N/A   Clear
8:53 PM 36.0 °F 30.3 °F 14.0 °F 41% 29.72 in 10.0 mi NW 6.9 mph - N/A   Clear
9:53 PM 36.0 °F 30.3 °F 12.9 °F 39% 29.75 in 10.0 mi NNW 6.9 mph - N/A   Clear
10:53 PM 36.0 °F 29.0 °F - N/A% 29.73 in 10.0 mi NNW 9.2 mph - N/A   Mostly Cloudy
11:53 PM 36.0 °F 33.3 °F 16.0 °F 44% 29.78 in 10.0 mi South 3.5 mph - N/A   Overcast